Terug naar catalogus

COSMOS 1275 DEB

ActiefPO
NORAD 18601·DEBRIS·🇷🇺 Russia

Gelanceerd Jun 4, 1981 vanaf Plesetsk Cosmodrome

Loading…

Volgende Passages (komende 24 uur)

TLE

VersSource: Space-Track

Epoch: Sep 14, 2026, 02:58 UTC

1 18601U 81053LW  26257.12408525  .00002346  00000-0  10119-2 0  9991
2 18601  82.7815 303.4701 0050460 226.0324 163.0987 14.23502006993807

Volg COSMOS 1275 DEB in realtime met AllMySat

Download on the App Store